| time (UTC) | temp C | wind direction | speed KPH | gust KPH | rain 1hr cm | rain 24hr cm | rain mn cm | humidity % | barometer mb |
| 20260905163412 | 14 | 310 | 3.2 | 3.2 | 0.00 | 0.00 | 0.00 | 98 | 1018.4 |
| 20260905162908 | 13 | 293 | 1.6 | 1.6 | 0.00 | 0.00 | 0.00 | 99 | 1018.4 |
| 20260905162402 | 13 | 308 | 0.0 | 0.0 | 0.00 | 0.00 | 0.00 | 99 | 1018.5 |
| 20260905161857 | 14 | 302 | 1.6 | 1.6 | 0.00 | 0.00 | 0.00 | 99 | 1018.3 |
| 20260905161356 | 14 | 307 | 1.6 | 1.6 | 0.00 | 0.00 | 0.00 | 99 | 1018.4 |
| 20260905160854 | 13 | 304 | 0.0 | 0.0 | 0.00 | 0.00 | 0.00 | 99 | 1018.7 |
| 20260905160349 | 13 | 310 | 1.6 | 1.6 | 0.00 | 0.00 | 0.00 | 99 | 1018.3 |
| 20260905155843 | 13 | 329 | 0.0 | 0.0 | 0.00 | 0.00 | 0.00 | 99 | 1018.5 |
| 20260905155337 | 13 | 329 | 0.0 | 0.0 | 0.00 | 0.00 | 0.00 | 99 | 1018.4 |
| 20260905154836 | 13 | 329 | 0.0 | 0.0 | 0.00 | 0.00 | 0.00 | 99 | 1018.4 |
| 20260905154332 | 13 | 328 | 0.0 | 0.0 | 0.00 | 0.00 | 0.00 | 99 | 1018.6 |
| 20260905153827 | 13 | 328 | 1.6 | 1.6 | 0.00 | 0.00 | 0.00 | 99 | 1018.4 |
| 20260905153324 | 13 | 330 | 0.0 | 0.0 | 0.00 | 0.00 | 0.00 | 99 | 1018.6 |
| 20260905152824 | 13 | 330 | 0.0 | 0.0 | 0.00 | 0.00 | 0.00 | 99 | 1018.4 |
| 20260905152322 | 13 | 330 | 0.0 | 0.0 | 0.00 | 0.00 | 0.00 | 99 | 1018.4 |
| 20260905151818 | 12 | 330 | 0.0 | 0.0 | 0.00 | 0.00 | 0.00 | 99 | 1018.6 |
| 20260905151314 | 12 | 330 | 0.0 | 0.0 | 0.00 | 0.00 | 0.00 | 99 | 1018.4 |
| 20260905150813 | 12 | 330 | 0.0 | 0.0 | 0.00 | 0.00 | 0.00 | 99 | 1018.4 |
| 20260905150308 | 12 | 330 | 0.0 | 0.0 | 0.00 | 0.00 | 0.00 | 99 | 1018.6 |
| 20260905145805 | 12 | 330 | 0.0 | 0.0 | 0.00 | 0.00 | 0.00 | 99 | 1018.4 |
| 20260905145259 | 12 | 330 | 0.0 | 0.0 | 0.00 | 0.00 | 0.00 | 99 | 1018.5 |
| 20260905144758 | 12 | 330 | 0.0 | 0.0 | 0.00 | 0.00 | 0.00 | 99 | 1018.3 |
| 20260905144254 | 12 | 330 | 0.0 | 0.0 | 0.00 | 0.00 | 0.00 | 99 | 1018.4 |
| 20260905143752 | 12 | 330 | 0.0 | 0.0 | 0.00 | 0.00 | 0.00 | 99 | 1018.3 |
| 20260905143247 | 11 | 330 | 0.0 | 0.0 | 0.00 | 0.00 | 0.00 | 99 | 1018.4 |
| 20260905142745 | 11 | 330 | 0.0 | 0.0 | 0.00 | 0.00 | 0.00 | 99 | 1018.4 |
| 20260905142240 | 11 | 330 | 0.0 | 0.0 | 0.00 | 0.00 | 0.00 | 99 | 1018.5 |
| 20260905141736 | 11 | 330 | 0.0 | 0.0 | 0.00 | 0.00 | 0.00 | 99 | 1018.4 |
| 20260905141231 | 11 | 330 | 0.0 | 0.0 | 0.00 | 0.00 | 0.00 | 99 | 1018.3 |
| 20260905140721 | 11 | 330 | 0.0 | 0.0 | 0.00 | 0.00 | 0.00 | 99 | 1018.4 |
| 20260905140220 | 11 | 330 | 0.0 | 0.0 | 0.00 | 0.00 | 0.00 | 99 | 1018.1 |
| 20260905135715 | 11 | 330 | 1.6 | 1.6 | 0.00 | 0.00 | 0.00 | 99 | 1018.2 |
| 20260905135211 | 11 | 330 | 0.0 | 0.0 | 0.00 | 0.00 | 0.00 | 99 | 1018.2 |
| 20260905134710 | 11 | 330 | 0.0 | 0.0 | 0.00 | 0.00 | 0.00 | 99 | 1018.3 |
| 20260905134210 | 11 | 330 | 0.0 | 0.0 | 0.00 | 0.00 | 0.00 | 99 | 1018.2 |
| 20260905133705 | 11 | 330 | 0.0 | 0.0 | 0.00 | 0.00 | 0.00 | 99 | 1018.2 |
| 20260905133200 | 11 | 330 | 0.0 | 0.0 | 0.00 | 0.00 | 0.00 | 99 | 1018.0 |
| 20260905132659 | 11 | 330 | 0.0 | 0.0 | 0.00 | 0.00 | 0.00 | 99 | 1018.2 |
| 20260905132154 | 11 | 330 | 0.0 | 0.0 | 0.00 | 0.00 | 0.00 | 99 | 1018.0 |
| 20260905131649 | 11 | 330 | 0.0 | 0.0 | 0.00 | 0.00 | 0.00 | 99 | 1018.0 |
| 20260905131144 | 11 | 330 | 0.0 | 0.0 | 0.00 | 0.00 | 0.00 | 99 | 1018.1 |
| 20260905130639 | 11 | 330 | 0.0 | 0.0 | 0.00 | 0.00 | 0.00 | 99 | 1017.9 |
| 20260905130138 | 12 | 330 | 0.0 | 0.0 | 0.00 | 0.00 | 0.00 | 99 | 1017.9 |
| 20260905125632 | 12 | 330 | 0.0 | 1.6 | 0.00 | 0.00 | 0.00 | 99 | 1017.9 |
| 20260905125128 | 11 | 330 | 0.0 | 0.0 | 0.00 | 0.00 | 0.00 | 99 | 1017.7 |
| 20260905124625 | 11 | 330 | 0.0 | 0.0 | 0.00 | 0.00 | 0.00 | 99 | 1017.6 |
| 20260905124121 | 11 | 330 | 0.0 | 0.0 | 0.00 | 0.00 | 0.00 | 99 | 1017.7 |
| 20260905123615 | 11 | 330 | 0.0 | 0.0 | 0.00 | 0.00 | 0.00 | 99 | 1017.9 |
| 20260905123113 | 11 | 330 | 0.0 | 0.0 | 0.00 | 0.00 | 0.00 | 99 | 1017.8 |
| 20260905122607 | 11 | 330 | 0.0 | 0.0 | 0.00 | 0.00 | 0.00 | 99 | 1017.9 |
| 20260905122107 | 12 | 330 | 0.0 | 0.0 | 0.00 | 0.00 | 0.00 | 99 | 1017.9 |
| 20260905121601 | 12 | 330 | 0.0 | 0.0 | 0.00 | 0.00 | 0.00 | 99 | 1017.7 |
| 20260905121057 | 12 | 330 | 0.0 | 0.0 | 0.00 | 0.00 | 0.00 | 99 | 1017.7 |
| 20260905120556 | 12 | 330 | 0.0 | 0.0 | 0.00 | 0.00 | 0.00 | 99 | 1017.6 |
| 20260905120051 | 12 | 330 | 0.0 | 0.0 | 0.00 | 0.00 | 0.00 | 99 | 1017.6 |
| 20260905115550 | 12 | 330 | 0.0 | 0.0 | 0.00 | 0.00 | 0.00 | 99 | 1017.9 |
| 20260905115045 | 12 | 330 | 0.0 | 0.0 | 0.00 | 0.00 | 0.00 | 99 | 1017.8 |
| 20260905114544 | 12 | 330 | 0.0 | 0.0 | 0.00 | 0.00 | 0.00 | 99 | 1017.7 |
| 20260905114043 | 12 | 330 | 0.0 | 0.0 | 0.00 | 0.00 | 0.00 | 99 | 1017.7 |
| 20260905113538 | 12 | 330 | 0.0 | 0.0 | 0.00 | 0.00 | 0.00 | 99 | 1017.8 |
| 20260905113034 | 12 | 330 | 0.0 | 0.0 | 0.00 | 0.00 | 0.00 | 99 | 1017.8 |
| 20260905112529 | 12 | 330 | 0.0 | 0.0 | 0.00 | 0.00 | 0.00 | 99 | 1017.6 |
| 20260905112024 | 12 | 330 | 0.0 | 0.0 | 0.00 | 0.00 | 0.00 | 99 | 1017.6 |
| 20260905111519 | 12 | 330 | 0.0 | 0.0 | 0.00 | 0.00 | 0.00 | 99 | 1017.7 |
| 20260905111018 | 12 | 330 | 0.0 | 0.0 | 0.00 | 0.00 | 0.00 | 99 | 1017.5 |
| 20260905110518 | 12 | 330 | 0.0 | 0.0 | 0.00 | 0.00 | 0.00 | 99 | 1017.5 |
| 20260905110013 | 11 | 330 | 0.0 | 0.0 | 0.00 | 0.00 | 0.00 | 99 | 1017.6 |
| 20260905105507 | 11 | 330 | 0.0 | 0.0 | 0.00 | 0.00 | 0.00 | 99 | 1017.5 |
| 20260905105006 | 11 | 330 | 0.0 | 0.0 | 0.00 | 0.00 | 0.00 | 99 | 1017.7 |
| 20260905104503 | 11 | 330 | 0.0 | 0.0 | 0.00 | 0.00 | 0.00 | 99 | 1017.8 |
| 20260905103957 | 11 | 330 | 0.0 | 0.0 | 0.00 | 0.00 | 0.00 | 99 | 1017.6 |
| 20260905103452 | 12 | 330 | 0.0 | 0.0 | 0.00 | 0.00 | 0.00 | 99 | 1017.7 |
| 20260905102948 | 12 | 330 | 0.0 | 0.0 | 0.00 | 0.00 | 0.00 | 99 | 1017.7 |
| 20260905102444 | 12 | 330 | 0.0 | 0.0 | 0.00 | 0.00 | 0.00 | 99 | 1017.7 |
| 20260905101939 | 12 | 330 | 0.0 | 0.0 | 0.00 | 0.00 | 0.00 | 99 | 1017.9 |
| 20260905101438 | 12 | 330 | 0.0 | 0.0 | 0.00 | 0.00 | 0.00 | 99 | 1017.7 |
| 20260905100937 | 12 | 330 | 0.0 | 0.0 | 0.00 | 0.00 | 0.00 | 99 | 1017.8 |
| 20260905100433 | 12 | 330 | 0.0 | 0.0 | 0.00 | 0.00 | 0.00 | 99 | 1017.7 |
| 20260905095932 | 12 | 330 | 0.0 | 0.0 | 0.00 | 0.00 | 0.00 | 99 | 1017.7 |
| 20260905095432 | 12 | 330 | 0.0 | 0.0 | 0.00 | 0.00 | 0.00 | 99 | 1017.9 |
| 20260905094927 | 12 | 330 | 0.0 | 0.0 | 0.00 | 0.00 | 0.00 | 99 | 1017.8 |
| 20260905094423 | 12 | 330 | 0.0 | 0.0 | 0.00 | 0.00 | 0.00 | 99 | 1017.7 |
| 20260905093922 | 12 | 330 | 0.0 | 0.0 | 0.00 | 0.00 | 0.00 | 99 | 1017.8 |
| 20260905093418 | 12 | 330 | 0.0 | 0.0 | 0.00 | 0.00 | 0.00 | 99 | 1017.7 |
| 20260905092913 | 12 | 330 | 0.0 | 0.0 | 0.00 | 0.00 | 0.00 | 99 | 1017.4 |
| 20260905092408 | 12 | 330 | 0.0 | 0.0 | 0.00 | 0.00 | 0.00 | 99 | 1017.6 |
| 20260905091903 | 12 | 330 | 0.0 | 0.0 | 0.00 | 0.00 | 0.00 | 99 | 1017.6 |
| 20260905091403 | 12 | 330 | 0.0 | 0.0 | 0.00 | 0.00 | 0.00 | 99 | 1017.6 |
| 20260905090902 | 12 | 330 | 0.0 | 0.0 | 0.00 | 0.00 | 0.00 | 99 | 1017.5 |
| 20260905090358 | 12 | 330 | 0.0 | 0.0 | 0.00 | 0.00 | 0.00 | 99 | 1017.5 |
| 20260905085856 | 12 | 330 | 0.0 | 0.0 | 0.00 | 0.00 | 0.00 | 99 | 1017.6 |
| 20260905085351 | 12 | 330 | 0.0 | 0.0 | 0.00 | 0.00 | 0.00 | 99 | 1017.6 |
| 20260905084848 | 12 | 330 | 0.0 | 0.0 | 0.00 | 0.00 | 0.00 | 99 | 1017.5 |
| 20260905084346 | 12 | 330 | 0.0 | 0.0 | 0.00 | 0.00 | 0.00 | 99 | 1017.4 |
| 20260905083841 | 12 | 330 | 0.0 | 0.0 | 0.00 | 0.00 | 0.00 | 99 | 1017.4 |
| 20260905083337 | 12 | 330 | 0.0 | 0.0 | 0.00 | 0.00 | 0.00 | 99 | 1017.4 |
| 20260905082832 | 12 | 330 | 0.0 | 0.0 | 0.00 | 0.00 | 0.00 | 99 | 1017.4 |
| 20260905082328 | 12 | 330 | 0.0 | 0.0 | 0.00 | 0.00 | 0.00 | 99 | 1017.4 |
| 20260905081823 | 12 | 330 | 0.0 | 0.0 | 0.00 | 0.00 | 0.00 | 99 | 1017.3 |
| 20260905081318 | 12 | 330 | 0.0 | 0.0 | 0.00 | 0.00 | 0.00 | 99 | 1017.4 |
| 20260905080817 | 12 | 330 | 0.0 | 0.0 | 0.00 | 0.00 | 0.00 | 99 | 1017.5 |
| 20260905080312 | 12 | 330 | 0.0 | 0.0 | 0.00 | 0.00 | 0.00 | 99 | 1017.3 |
| 20260905075811 | 12 | 330 | 0.0 | 0.0 | 0.00 | 0.00 | 0.00 | 99 | 1017.4 |
| 20260905075311 | 12 | 330 | 0.0 | 0.0 | 0.00 | 0.00 | 0.00 | 99 | 1017.3 |
| 20260905074809 | 12 | 330 | 0.0 | 0.0 | 0.00 | 0.00 | 0.00 | 99 | 1017.4 |
| 20260905074306 | 12 | 330 | 0.0 | 0.0 | 0.00 | 0.00 | 0.00 | 99 | 1017.0 |
| 20260905073801 | 12 | 330 | 0.0 | 0.0 | 0.00 | 0.00 | 0.00 | 99 | 1017.3 |
| 20260905073256 | 12 | 330 | 0.0 | 0.0 | 0.00 | 0.00 | 0.00 | 99 | 1017.4 |
| 20260905072756 | 12 | 330 | 0.0 | 0.0 | 0.00 | 0.00 | 0.00 | 99 | 1017.4 |
| 20260905072251 | 12 | 330 | 0.0 | 0.0 | 0.00 | 0.00 | 0.00 | 99 | 1017.3 |
| 20260905071748 | 12 | 330 | 0.0 | 0.0 | 0.00 | 0.00 | 0.00 | 99 | 1017.2 |
| 20260905071243 | 12 | 330 | 0.0 | 0.0 | 0.00 | 0.00 | 0.00 | 99 | 1017.4 |
| 20260905070738 | 12 | 330 | 0.0 | 0.0 | 0.00 | 0.00 | 0.00 | 99 | 1017.2 |
| 20260905070235 | 12 | 330 | 0.0 | 0.0 | 0.00 | 0.00 | 0.00 | 99 | 1017.1 |
| 20260905065733 | 12 | 330 | 0.0 | 0.0 | 0.00 | 0.53 | 0.53 | 99 | 1017.2 |
| 20260905065227 | 12 | 330 | 0.0 | 0.0 | 0.00 | 0.53 | 0.53 | 99 | 1016.9 |
| 20260905064722 | 12 | 330 | 0.0 | 0.0 | 0.00 | 0.53 | 0.53 | 99 | 1016.8 |
| 20260905064218 | 12 | 334 | 0.0 | 0.0 | 0.00 | 0.53 | 0.53 | 99 | 1016.9 |
| 20260905063716 | 12 | 334 | 0.0 | 0.0 | 0.00 | 0.53 | 0.53 | 99 | 1017.0 |
| 20260905063213 | 12 | 332 | 0.0 | 0.0 | 0.00 | 0.53 | 0.53 | 99 | 1016.7 |
| 20260905062708 | 12 | 332 | 0.0 | 0.0 | 0.00 | 0.53 | 0.53 | 99 | 1016.9 |
| 20260905062208 | 12 | 332 | 0.0 | 0.0 | 0.00 | 0.53 | 0.53 | 99 | 1016.8 |
| 20260905061702 | 12 | 332 | 0.0 | 0.0 | 0.00 | 0.53 | 0.53 | 99 | 1016.7 |
| 20260905061156 | 12 | 332 | 0.0 | 0.0 | 0.00 | 0.53 | 0.53 | 99 | 1016.7 |
| 20260905060652 | 12 | 332 | 0.0 | 0.0 | 0.00 | 0.53 | 0.53 | 99 | 1016.4 |
| 20260905060148 | 12 | 332 | 0.0 | 0.0 | 0.00 | 0.53 | 0.53 | 99 | 1016.5 |
| 20260905055646 | 12 | 332 | 0.0 | 0.0 | 0.00 | 0.53 | 0.53 | 99 | 1016.5 |
| 20260905055142 | 12 | 332 | 0.0 | 0.0 | 0.00 | 0.53 | 0.53 | 99 | 1016.6 |
| 20260905054637 | 12 | 332 | 0.0 | 0.0 | 0.00 | 0.53 | 0.53 | 99 | 1016.7 |
| 20260905054133 | 12 | 332 | 0.0 | 0.0 | 0.00 | 0.53 | 0.53 | 99 | 1016.6 |
| 20260905053633 | 12 | 332 | 0.0 | 0.0 | 0.00 | 0.53 | 0.53 | 99 | 1016.8 |
| 20260905053128 | 12 | 332 | 0.0 | 0.0 | 0.00 | 0.53 | 0.53 | 99 | 1016.6 |
| 20260905052627 | 12 | 332 | 0.0 | 0.0 | 0.00 | 0.53 | 0.53 | 99 | 1016.9 |
| 20260905052122 | 12 | 332 | 0.0 | 0.0 | 0.00 | 0.53 | 0.53 | 99 | 1016.9 |
| 20260905051617 | 12 | 332 | 0.0 | 0.0 | 0.00 | 0.53 | 0.53 | 99 | 1016.7 |
| 20260905051114 | 12 | 332 | 0.0 | 0.0 | 0.00 | 0.53 | 0.53 | 99 | 1016.9 |
| 20260905050610 | 12 | 332 | 0.0 | 0.0 | 0.00 | 0.53 | 0.53 | 99 | 1016.6 |
| 20260905050106 | 12 | 332 | 0.0 | 0.0 | 0.00 | 0.53 | 0.53 | 99 | 1016.6 |
| 20260905045601 | 12 | 332 | 0.0 | 0.0 | 0.00 | 0.53 | 0.53 | 99 | 1016.6 |
| 20260905045056 | 12 | 332 | 0.0 | 0.0 | 0.00 | 0.53 | 0.53 | 99 | 1016.4 |
| 20260905044556 | 12 | 332 | 0.0 | 0.0 | 0.00 | 0.53 | 0.53 | 99 | 1016.5 |
| 20260905044050 | 12 | 332 | 0.0 | 0.0 | 0.00 | 0.53 | 0.53 | 99 | 1016.6 |
| 20260905043549 | 12 | 332 | 0.0 | 0.0 | 0.00 | 0.53 | 0.53 | 99 | 1016.4 |
| 20260905043045 | 12 | 332 | 0.0 | 0.0 | 0.00 | 0.53 | 0.53 | 99 | 1016.6 |
| 20260905042544 | 12 | 332 | 0.0 | 0.0 | 0.00 | 0.53 | 0.53 | 99 | 1016.4 |
| 20260905042039 | 12 | 332 | 0.0 | 0.0 | 0.00 | 0.53 | 0.53 | 99 | 1016.2 |
| 20260905041534 | 12 | 332 | 0.0 | 0.0 | 0.00 | 0.53 | 0.53 | 99 | 1016.6 |
| 20260905041030 | 12 | 332 | 0.0 | 0.0 | 0.00 | 0.53 | 0.53 | 99 | 1016.5 |
| 20260905040529 | 12 | 332 | 0.0 | 0.0 | 0.00 | 0.53 | 0.53 | 99 | 1016.3 |
| 20260905040028 | 12 | 332 | 0.0 | 0.0 | 0.00 | 0.53 | 0.53 | 99 | 1016.2 |
| 20260905035523 | 12 | 332 | 0.0 | 0.0 | 0.00 | 0.53 | 0.53 | 99 | 1016.2 |
| 20260905035020 | 12 | 332 | 0.0 | 0.0 | 0.00 | 0.53 | 0.53 | 99 | 1016.3 |
| 20260905034516 | 12 | 332 | 0.0 | 0.0 | 0.00 | 0.53 | 0.53 | 99 | 1016.0 |
| 20260905034015 | 12 | 332 | 0.0 | 0.0 | 0.00 | 0.53 | 0.53 | 99 | 1016.1 |
| 20260905033509 | 12 | 332 | 0.0 | 0.0 | 0.00 | 0.53 | 0.53 | 99 | 1016.1 |
| 20260905033005 | 13 | 332 | 0.0 | 0.0 | 0.00 | 0.53 | 0.53 | 99 | 1016.1 |
| 20260905032500 | 13 | 332 | 0.0 | 0.0 | 0.00 | 0.53 | 0.53 | 99 | 1016.3 |
| 20260905031954 | 13 | 332 | 0.0 | 0.0 | 0.00 | 0.53 | 0.53 | 99 | 1016.0 |
| 20260905031450 | 13 | 332 | 0.0 | 0.0 | 0.00 | 0.53 | 0.53 | 99 | 1016.0 |
| 20260905030945 | 13 | 332 | 0.0 | 0.0 | 0.00 | 0.53 | 0.53 | 99 | 1016.0 |
| 20260905030441 | 13 | 332 | 0.0 | 0.0 | 0.00 | 0.53 | 0.53 | 99 | 1015.8 |
| 20260905025939 | 13 | 332 | 0.0 | 0.0 | 0.00 | 0.53 | 0.53 | 99 | 1015.8 |
| 20260905025435 | 13 | 332 | 0.0 | 0.0 | 0.00 | 0.53 | 0.53 | 99 | 1016.0 |
| 20260905024932 | 13 | 332 | 0.0 | 0.0 | 0.00 | 0.53 | 0.53 | 99 | 1015.9 |
| 20260905024432 | 13 | 332 | 0.0 | 0.0 | 0.00 | 0.53 | 0.53 | 98 | 1015.7 |
| 20260905023927 | 13 | 332 | 0.0 | 0.0 | 0.00 | 0.53 | 0.53 | 98 | 1015.8 |
| 20260905023422 | 14 | 332 | 0.0 | 0.0 | 0.00 | 0.53 | 0.53 | 97 | 1015.8 |
| 20260905022921 | 14 | 332 | 0.0 | 0.0 | 0.00 | 0.53 | 0.53 | 96 | 1015.8 |
| 20260905022417 | 14 | 332 | 0.0 | 0.0 | 0.00 | 0.53 | 0.53 | 96 | 1015.9 |
| 20260905021912 | 15 | 332 | 0.0 | 0.0 | 0.00 | 0.53 | 0.53 | 96 | 1015.9 |
| 20260905021412 | 15 | 332 | 0.0 | 0.0 | 0.00 | 0.53 | 0.53 | 95 | 1015.7 |
| 20260905020907 | 15 | 332 | 0.0 | 0.0 | 0.00 | 0.53 | 0.53 | 95 | 1015.8 |
| 20260905020407 | 15 | 332 | 0.0 | 0.0 | 0.00 | 0.53 | 0.53 | 94 | 1015.9 |
| 20260905015906 | 15 | 332 | 0.0 | 0.0 | 0.00 | 0.53 | 0.53 | 94 | 1015.7 |
| 20260905015405 | 15 | 332 | 0.0 | 0.0 | 0.00 | 0.53 | 0.53 | 94 | 1015.7 |
| 20260905014904 | 15 | 285 | 0.0 | 0.0 | 0.00 | 0.53 | 0.53 | 94 | 1015.5 |
| 20260905014400 | 15 | 299 | 0.0 | 0.0 | 0.00 | 0.53 | 0.53 | 94 | 1015.4 |
| 20260905013855 | 15 | 299 | 0.0 | 0.0 | 0.00 | 0.53 | 0.53 | 95 | 1015.4 |
| 20260905013351 | 15 | 299 | 0.0 | 0.0 | 0.00 | 0.53 | 0.53 | 95 | 1015.5 |
| 20260905012846 | 15 | 299 | 0.0 | 0.0 | 0.00 | 0.53 | 0.53 | 95 | 1015.3 |
| 20260905012341 | 15 | 299 | 0.0 | 0.0 | 0.00 | 0.53 | 0.53 | 96 | 1015.4 |
| 20260905011838 | 15 | 299 | 0.0 | 0.0 | 0.00 | 0.53 | 0.53 | 96 | 1015.3 |
| 20260905011334 | 15 | 299 | 0.0 | 0.0 | 0.00 | 0.53 | 0.53 | 95 | 1015.2 |
| 20260905010829 | 15 | 299 | 0.0 | 0.0 | 0.00 | 0.53 | 0.53 | 95 | 1015.4 |
| 20260905010324 | 15 | 299 | 0.0 | 0.0 | 0.00 | 0.53 | 0.53 | 96 | 1015.2 |
| 20260905005820 | 15 | 299 | 0.0 | 0.0 | 0.00 | 0.53 | 0.53 | 96 | 1015.1 |
| 20260905005316 | 15 | 299 | 0.0 | 0.0 | 0.00 | 0.53 | 0.53 | 95 | 1015.2 |
| 20260905004810 | 15 | 298 | 0.0 | 0.0 | 0.00 | 0.53 | 0.53 | 95 | 1015.2 |
| 20260905004305 | 15 | 298 | 0.0 | 0.0 | 0.00 | 0.53 | 0.53 | 95 | 1015.1 |
| 20260905003800 | 15 | 298 | 0.0 | 0.0 | 0.00 | 0.53 | 0.53 | 95 | 1015.2 |
| 20260905003256 | 16 | 300 | 0.0 | 0.0 | 0.00 | 0.53 | 0.53 | 94 | 1015.1 |
| 20260905002752 | 16 | 299 | 0.0 | 0.0 | 0.00 | 0.53 | 0.53 | 94 | 1015.1 |
| 20260905002251 | 16 | 316 | 0.0 | 0.0 | 0.00 | 0.53 | 0.53 | 95 | 1015.2 |
| 20260905001746 | 16 | 316 | 0.0 | 0.0 | 0.00 | 0.53 | 0.53 | 95 | 1015.3 |
| 20260905001245 | 16 | 316 | 0.0 | 0.0 | 0.00 | 0.53 | 0.53 | 94 | 1014.9 |
| 20260905000741 | 16 | 316 | 0.0 | 0.0 | 0.00 | 0.53 | 0.53 | 94 | 1015.2 |
| 20260905000237 | 16 | 316 | 0.0 | 0.0 | 0.00 | 0.53 | 0.53 | 93 | 1015.0 |
| 20260904235732 | 16 | 316 | 0.0 | 0.0 | 0.00 | 0.53 | 0.53 | 93 | 1015.3 |
| 20260904235226 | 16 | 316 | 0.0 | 0.0 | 0.00 | 0.53 | 0.53 | 92 | 1015.2 |
| 20260904234721 | 16 | 316 | 0.0 | 0.0 | 0.00 | 0.53 | 0.53 | 92 | 1015.2 |
| 20260904234216 | 16 | 316 | 0.0 | 0.0 | 0.00 | 0.53 | 0.53 | 94 | 1015.2 |
| 20260904233712 | 16 | 303 | 0.0 | 0.0 | 0.00 | 0.53 | 0.53 | 93 | 1015.1 |
| 20260904233208 | 16 | 303 | 0.0 | 0.0 | 0.00 | 0.53 | 0.53 | 93 | 1015.5 |
| 20260904232705 | 16 | 323 | 0.0 | 0.0 | 0.00 | 0.53 | 0.53 | 94 | 1015.1 |
| 20260904232201 | 16 | 347 | 0.0 | 1.6 | 0.00 | 0.53 | 0.53 | 94 | 1015.1 |
| 20260904231656 | 16 | 332 | 0.0 | 0.0 | 0.00 | 0.53 | 0.53 | 95 | 1015.0 |
| 20260904231151 | 15 | 315 | 0.0 | 0.0 | 0.00 | 0.53 | 0.53 | 97 | 1014.9 |
| 20260904230651 | 15 | 315 | 0.0 | 0.0 | 0.00 | 0.53 | 0.53 | 98 | 1014.9 |
| 20260904230146 | 15 | 332 | 0.0 | 0.0 | 0.00 | 0.53 | 0.53 | 99 | 1014.7 |
| 20260904225644 | 15 | 302 | 0.0 | 0.0 | 0.00 | 0.53 | 0.53 | 99 | 1014.9 |
| 20260904225139 | 14 | 331 | 0.0 | 1.6 | 0.00 | 0.53 | 0.53 | 99 | 1014.9 |
| 20260904224633 | 14 | 332 | 0.0 | 0.0 | 0.00 | 0.53 | 0.53 | 99 | 1014.9 |
| 20260904224127 | 14 | 342 | 0.0 | 1.6 | 0.13 | 0.53 | 0.53 | 99 | 1014.9 |
| 20260904223627 | 14 | 328 | 0.0 | 0.0 | 0.13 | 0.53 | 0.53 | 99 | 1014.9 |
| 20260904223122 | 14 | 319 | 0.0 | 0.0 | 0.00 | 0.51 | 0.51 | 99 | 1015.2 |
| 20260904222619 | 14 | 319 | 0.0 | 0.0 | 0.00 | 0.51 | 0.51 | 98 | 1015.2 |
| 20260904222114 | 13 | 322 | 0.0 | 0.0 | 0.18 | 0.51 | 0.51 | 98 | 1015.1 |
| 20260904221613 | 13 | 322 | 0.0 | 0.0 | 0.18 | 0.51 | 0.51 | 98 | 1015.1 |
| 20260904221113 | 13 | 323 | 0.0 | 0.0 | 0.18 | 0.51 | 0.51 | 97 | 1015.0 |
| 20260904220608 | 13 | 307 | 0.0 | 1.6 | 0.00 | 0.48 | 0.48 | 97 | 1015.0 |
| 20260904220104 | 13 | 2 | 1.6 | 1.6 | 0.13 | 0.48 | 0.48 | 97 | 1014.8 |
| 20260904215604 | 14 | 314 | 0.0 | 0.0 | 0.30 | 0.48 | 0.48 | 97 | 1014.9 |
| 20260904215100 | 14 | 347 | 1.6 | 1.6 | 0.43 | 0.48 | 0.48 | 97 | 1014.7 |
| 20260904214554 | 14 | 319 | 0.0 | 0.0 | 0.43 | 0.43 | 0.43 | 96 | 1014.9 |
| 20260904214050 | 14 | 319 | 0.0 | 0.0 | 0.79 | 0.41 | 0.41 | 95 | 1014.7 |
| 20260904213548 | 15 | 342 | 1.6 | 1.6 | 0.61 | 0.38 | 0.38 | 94 | 1014.5 |
| 20260904213045 | 15 | 352 | 0.0 | 1.6 | 0.48 | 0.28 | 0.28 | 93 | 1014.8 |
| 20260904212544 | 16 | 339 | 0.0 | 1.6 | 0.61 | 0.28 | 0.28 | 90 | 1014.3 |
| 20260904212040 | 16 | 303 | 0.0 | 1.6 | 0.13 | 0.20 | 0.20 | 85 | 1014.5 |
| 20260904211539 | 17 | 312 | 0.0 | 0.0 | 0.00 | 0.18 | 0.18 | 83 | 1014.3 |
| 20260904211035 | 17 | 308 | 0.0 | 0.0 | 0.00 | 0.18 | 0.18 | 78 | 1014.3 |
| 20260904210534 | 17 | 302 | 1.6 | 3.2 | 0.00 | 0.18 | 0.18 | 74 | 1014.0 |
| 20260904210030 | 18 | 310 | 1.6 | 3.2 | 0.00 | 0.18 | 0.18 | 75 | 1013.9 |
| 20260904205526 | 18 | 305 | 0.0 | 1.6 | 0.00 | 0.18 | 0.18 | 72 | 1013.8 |
| 20260904205022 | 18 | 313 | 0.0 | 0.0 | 0.00 | 0.18 | 0.18 | 71 | 1014.0 |
| 20260904204518 | 18 | 309 | 0.0 | 0.0 | 0.00 | 0.18 | 0.18 | 73 | 1014.0 |
| 20260904204014 | 18 | 304 | 3.2 | 3.2 | 0.00 | 0.18 | 0.18 | 71 | 1013.7 |
| 20260904203509 | 18 | 298 | 1.6 | 4.8 | 0.00 | 0.18 | 0.18 | 71 | 1013.8 |
| 20260904203006 | 18 | 311 | 1.6 | 1.6 | 0.00 | 0.18 | 0.18 | 71 | 1013.7 |
| 20260904202501 | 18 | 297 | 1.6 | 1.6 | 0.00 | 0.18 | 0.18 | 70 | 1013.7 |
| 20260904201957 | 18 | 226 | 0.0 | 1.6 | 0.00 | 0.18 | 0.18 | 69 | 1013.7 |
| 20260904201452 | 18 | 334 | 1.6 | 3.2 | 0.00 | 0.18 | 0.18 | 70 | 1013.9 |
| 20260904200948 | 19 | 282 | 0.0 | 1.6 | 0.00 | 0.18 | 0.18 | 70 | 1013.9 |
| 20260904200446 | 18 | 348 | 1.6 | 3.2 | 0.00 | 0.18 | 0.18 | 71 | 1013.9 |
| 20260904195941 | 18 | 305 | 0.0 | 0.0 | 0.00 | 0.18 | 0.18 | 75 | 1013.9 |
| 20260904195439 | 18 | 296 | 3.2 | 4.8 | 0.00 | 0.18 | 0.18 | 71 | 1013.8 |
| 20260904194938 | 20 | 98 | 1.6 | 3.2 | 0.00 | 0.18 | 0.18 | 68 | 1013.9 |
| 20260904194433 | 18 | 311 | 1.6 | 1.6 | 0.00 | 0.18 | 0.18 | 70 | 1013.7 |
| 20260904193928 | 18 | 337 | 0.0 | 1.6 | 0.00 | 0.18 | 0.18 | 66 | 1014.0 |
| 20260904193424 | 18 | 107 | 3.2 | 3.2 | 0.00 | 0.18 | 0.18 | 65 | 1014.1 |
| 20260904192919 | 18 | 31 | 1.6 | 3.2 | 0.00 | 0.18 | 0.18 | 66 | 1014.0 |
| 20260904192414 | 18 | 305 | 0.0 | 1.6 | 0.00 | 0.18 | 0.18 | 64 | 1014.0 |
| 20260904191910 | 18 | 290 | 1.6 | 1.6 | 0.00 | 0.18 | 0.18 | 65 | 1014.2 |
| 20260904191407 | 18 | 304 | 0.0 | 0.0 | 0.00 | 0.18 | 0.18 | 65 | 1014.2 |
| 20260904190903 | 18 | 288 | 1.6 | 1.6 | 0.00 | 0.18 | 0.18 | 66 | 1014.2 |
| 20260904190358 | 18 | 248 | 1.6 | 1.6 | 0.00 | 0.18 | 0.18 | 67 | 1014.4 |
| 20260904185855 | 18 | 234 | 1.6 | 3.2 | 0.00 | 0.18 | 0.18 | 64 | 1014.0 |
| 20260904185350 | 18 | 262 | 1.6 | 1.6 | 0.00 | 0.18 | 0.18 | 67 | 1014.4 |
| 20260904184849 | 18 | 289 | 1.6 | 1.6 | 0.00 | 0.18 | 0.18 | 66 | 1014.1 |
| 20260904184344 | 17 | 327 | 0.0 | 0.0 | 0.00 | 0.18 | 0.18 | 69 | 1014.0 |
| 20260904183840 | 18 | 73 | 3.2 | 3.2 | 0.00 | 0.18 | 0.18 | 67 | 1014.0 |
| 20260904183335 | 17 | 347 | 0.0 | 1.6 | 0.00 | 0.18 | 0.18 | 69 | 1014.0 |
| 20260904182830 | 17 | 38 | 1.6 | 3.2 | 0.00 | 0.18 | 0.18 | 70 | 1014.0 |
| 20260904182325 | 18 | 304 | 0.0 | 0.0 | 0.00 | 0.18 | 0.18 | 73 | 1014.0 |
| 20260904181821 | 18 | 303 | 0.0 | 0.0 | 0.00 | 0.18 | 0.18 | 72 | 1014.1 |
| 20260904181320 | 17 | 302 | 0.0 | 0.0 | 0.00 | 0.18 | 0.18 | 75 | 1013.9 |
| 20260904180816 | 17 | 311 | 0.0 | 0.0 | 0.00 | 0.18 | 0.18 | 74 | 1013.9 |
| 20260904180311 | 18 | 319 | 0.0 | 0.0 | 0.00 | 0.18 | 0.18 | 74 | 1013.9 |
| 20260904175810 | 17 | 227 | 1.6 | 1.6 | 0.00 | 0.18 | 0.18 | 73 | 1013.9 |
| 20260904175308 | 17 | 312 | 0.0 | 1.6 | 0.00 | 0.18 | 0.18 | 75 | 1013.8 |
| 20260904174803 | 17 | 316 | 0.0 | 1.6 | 0.00 | 0.18 | 0.18 | 80 | 1013.9 |
| 20260904174259 | 17 | 152 | 1.6 | 1.6 | 0.00 | 0.18 | 0.18 | 74 | 1013.8 |
| 20260904173755 | 17 | 308 | 0.0 | 1.6 | 0.00 | 0.18 | 0.18 | 75 | 1013.8 |
| 20260904173250 | 17 | 336 | 0.0 | 1.6 | 0.00 | 0.18 | 0.18 | 75 | 1013.8 |
| 20260904172746 | 16 | 324 | 1.6 | 1.6 | 0.00 | 0.18 | 0.18 | 79 | 1013.6 |
| 20260904172245 | 16 | 320 | 1.6 | 1.6 | 0.00 | 0.18 | 0.18 | 83 | 1013.9 |
| 20260904171740 | 16 | 349 | 1.6 | 1.6 | 0.00 | 0.18 | 0.18 | 82 | 1013.8 |
| 20260904171235 | 16 | 315 | 0.0 | 0.0 | 0.00 | 0.18 | 0.18 | 85 | 1013.8 |
| 20260904170732 | 15 | 312 | 0.0 | 0.0 | 0.00 | 0.18 | 0.18 | 88 | 1013.7 |
| 20260904170228 | 15 | 351 | 1.6 | 1.6 | 0.00 | 0.18 | 0.18 | 89 | 1013.7 |
| 20260904165727 | 15 | 316 | 0.0 | 0.0 | 0.00 | 0.18 | 0.18 | 91 | 1013.7 |
| 20260904165221 | 15 | 294 | 1.6 | 1.6 | 0.00 | 0.18 | 0.18 | 92 | 1013.8 |
| 20260904164715 | 15 | 317 | 0.0 | 0.0 | 0.00 | 0.18 | 0.18 | 92 | 1013.6 |
| 20260904164210 | 14 | 299 | 1.6 | 1.6 | 0.00 | 0.18 | 0.18 | 94 | 1013.7 |
| 20260904163706 | 14 | 312 | 0.0 | 0.0 | 0.00 | 0.18 | 0.18 | 97 | 1013.7 |